Weather History for Augusta, ME

Change the Weather History Date:

Tuesday, January 29, 2013

  Actual Average Record
Temperature  
Mean Temperature 22 °F -  
Max Temperature 32 °F 26 °F 39 °F (2006)
Min Temperature 12 °F 10 °F -2 °F (1997)
Degree Days  
Heating Degree Days 43    
Moisture  
Dew Point 18 °F    
Average Humidity 80    
Maximum Humidity 96    
Minimum Humidity 59    
Precipitation  
Precipitation 0.00 in - - ()
Sea Level Pressure  
Sea Level Pressure 30.16 in    
Wind  
Wind Speed 2 mph (West)    
Max Wind Speed 5 mph    
Max Gust Speed -    
Visibility 10 miles    
Events Snow    
Averages and records for this station are not official NWS values.
T = Trace of Precipitation, MM = Missing Value Source: NWS Daily Summary

Daily Weather History Graph

Daily Weather History Graph

Search for Another Location

Airport:

Trip Planner

Search our weather history database for the weather conditions in past years. The results will help you decide how hot, cold, wet, or windy it might be!

Date:

Astronomy

Jan. 29, 2013 Rise Set
Actual Time 7:00 AM EST 4:44 PM EST
Civil Twilight 6:29 AM EST 5:16 PM EST
Nautical Twilight 5:54 AM EST 5:50 PM EST
Astronomical Twilight 5:20 AM EST 6:25 PM EST
Moon 7:46 PM EST (1/29) 7:47 AM EST (1/29)
Length of Visible Light 10h 46m
Length of Day
9h 44m
Waning Gibbous, 94% of the Moon is Illuminated
Jan 29
Waning Gibbous
Feb 3
Last Quarter
Feb 10
New
Feb 17
First Quarter
Feb 25
Full

Hourly Weather History & Observations

Time (EST) Temp. Windchill Dew Point Humidity Pressure Visibility Wind Dir Wind Speed Gust Speed Precip Events Conditions
12:53 AM 18.0 °F - 16.0 °F 92% 30.08 in 10.0 mi Calm Calm - N/A   Overcast
1:53 AM 17.1 °F - 15.1 °F 92% 30.10 in 10.0 mi Calm Calm - N/A   Partly Cloudy
2:53 AM 17.1 °F - 14.0 °F 88% 30.09 in 10.0 mi Calm Calm - N/A   Clear
3:53 AM 16.0 °F 8.8 °F 14.0 °F 92% 30.09 in 10.0 mi NW 4.6 mph - N/A   Clear
4:53 AM 12.9 °F 5.2 °F 12.0 °F 96% 30.11 in 10.0 mi North 4.6 mph - N/A   Clear
5:53 AM 12.9 °F 5.2 °F 10.9 °F 92% 30.12 in 10.0 mi NW 4.6 mph - N/A   Clear
6:53 AM 14.0 °F - 10.9 °F 88% 30.12 in 10.0 mi Calm Calm - N/A   Clear
7:53 AM 12.0 °F 5.9 °F 10.0 °F 92% 30.15 in 10.0 mi NNW 3.5 mph - N/A   Clear
8:53 AM 17.1 °F - 15.1 °F 92% 30.17 in 10.0 mi Calm Calm - N/A   Clear
9:53 AM 21.9 °F - 18.0 °F 85% 30.20 in 10.0 mi Calm Calm - N/A   Clear
10:53 AM 26.1 °F - 18.0 °F 71% 30.22 in 10.0 mi Calm Calm - N/A   Scattered Clouds
11:53 AM 30.0 °F 25.2 °F 19.9 °F 66% 30.19 in 10.0 mi West 4.6 mph - N/A   Clear
12:53 PM 30.9 °F - 19.0 °F 61% 30.17 in 10.0 mi Calm Calm - N/A   Clear
1:53 PM 32.0 °F 28.7 °F 19.0 °F 59% 30.19 in 10.0 mi West 3.5 mph - N/A   Clear
2:53 PM 32.0 °F - 19.9 °F 61% 30.17 in 10.0 mi Calm Calm - N/A   Clear
3:53 PM 30.9 °F 27.5 °F 19.0 °F 61% 30.16 in 10.0 mi SE 3.5 mph - N/A   Clear
4:53 PM 30.9 °F - 19.9 °F 64% 30.18 in 10.0 mi Calm Calm - N/A   Clear
5:53 PM 30.0 °F 26.5 °F 21.9 °F 72% 30.18 in 10.0 mi SSW 3.5 mph - N/A   Mostly Cloudy
6:53 PM 28.9 °F 25.2 °F 24.1 °F 82% 30.19 in 10.0 mi Variable 3.5 mph - N/A   Overcast
7:53 PM 28.9 °F 25.2 °F 24.1 °F 82% 30.21 in 10.0 mi Variable 3.5 mph - N/A   Overcast
8:53 PM 28.9 °F 25.2 °F 25.0 °F 85% 30.18 in 6.0 mi South 3.5 mph - 0.00 in Snow Light Snow
9:53 PM 28.9 °F - 25.0 °F 85% 30.19 in 10.0 mi Calm Calm - 0.00 in   Overcast
10:53 PM 28.9 °F - 25.0 °F 85% 30.16 in 10.0 mi Calm Calm - 0.00 in   Overcast
11:53 PM 30.0 °F 26.5 °F 27.0 °F 88% 30.16 in 5.0 mi SSE 3.5 mph - 0.00 in   Overcast